User: anonymous   Login
Location: Newark
(36.6333°N, 138.1833°E)
Time: 09:15:54
(UTC+00:00)
Language:

NO-84 - Orbit

View from above orbital plane
View from above orbital plane
View from above satellite
View from above satellite

Ground track
Ground track

The orbit data is extracted from the following two-line orbital elements,

1 40654U 15025D   20155.28853082  .00014730  00000-0  17075-3 0  9494
2 40654  54.9873   5.9979 0119161 149.9534 210.8383 15.53882300166823
Epoch (UTC): 03 June 2020 06:55:29
Eccentricity: 0.0119161
inclination: 54.9873°
perigee height: 324 km
apogee height: 486 km
right ascension of ascending node: 5.9979°
argument of perigee: 149.9534°
revolutions per day: 15.53882300
mean anomaly at epoch: 210.8383°
orbit number at epoch: 16682

The dashed part of the orbit path shows where the satellite is in the earth's shadow,  

DLR